• In Hungary
  • List of Countries
  • For 7 days
  • Water Temperature
  • Satellite Maps
  • Weather Map
  • News
  • Weather Widgets
  • user-avatar
    Login

    Hourly Weather Santa Lucía

    Today, 14 December, Thursday

    Time Temperature Precipitation Wind Pressure Humidity
    00:00 +14°C° 0 mm 2 mps 674 mmHg 93%
    01:00 +14°C° 0 mm 2 mps 674 mmHg 93%
    02:00 +13°C° 0 mm 1 mps 673 mmHg 93%
    03:00 +13°C° 0 mm 1 mps 673 mmHg 94%
    04:00 +13°C° 0 mm 1 mps 673 mmHg 94%
    05:00 +13°C° 0 mm 1 mps 673 mmHg 94%
    06:00 +13°C° 0 mm 1 mps 673 mmHg 93%
    07:00 +16°C° 0 mm 1 mps 674 mmHg 83%
    08:00 +20°C° 0 mm 1 mps 674 mmHg 72%
    09:00 +22°C° 0 mm 1 mps 675 mmHg 62%
    10:00 +24°C° 0 mm 1 mps 675 mmHg 55%
    11:00 +27°C° 0 mm 2 mps 675 mmHg 49%
    12:00 +29°C° 0 mm 2 mps 675 mmHg 43%
    13:00 +29°C° 0 mm 2 mps 675 mmHg 43%
    14:00 +29°C° 0 mm 2 mps 675 mmHg 44%
    15:00 +29°C° 0 mm 2 mps 674 mmHg 44%
    16:00 +26°C° 0 mm 2 mps 674 mmHg 53%
    17:00 +24°C° 0 mm 1 mps 673 mmHg 63%
    18:00 +21°C° 0 mm 1 mps 673 mmHg 72%
    19:00 +20°C° 0 mm 1 mps 673 mmHg 77%
    20:00 +19°C° 0 mm 1 mps 674 mmHg 83%
    21:00 +18°C° 0 mm 1 mps 674 mmHg 88%
    22:00 +18°C° 0 mm 1 mps 674 mmHg 90%
    23:00 +18°C° 0 mm 1 mps 674 mmHg 92%

    Tomorrow, 15 December, Friday

    Time Temperature Precipitation Wind Pressure Humidity
    00:00 +16°C° 0 mm 1 mps 674 mmHg 94%
    01:00 +16°C° 0 mm 1 mps 673 mmHg 94%
    02:00 +16°C° 0 mm 1 mps 673 mmHg 94%
    03:00 +16°C° 0 mm 1 mps 673 mmHg 95%
    04:00 +16°C° 0 mm 1 mps 673 mmHg 95%
    05:00 +16°C° 0 mm 1 mps 673 mmHg 95%
    06:00 +16°C° 0 mm 1 mps 673 mmHg 94%
    07:00 +20°C° 0 mm 1 mps 674 mmHg 86%
    08:00 +21°C° 0 mm 2 mps 675 mmHg 77%
    09:00 +24°C° 0 mm 2 mps 676 mmHg 68%
    10:00 +25°C° 0 mm 2 mps 676 mmHg 64%
    11:00 +26°C° 0 mm 2 mps 675 mmHg 60%
    12:00 +28°C° 0 mm 2 mps 675 mmHg 56%
    13:00 +28°C° 0 mm 2 mps 675 mmHg 54%
    14:00 +28°C° 0 mm 3 mps 674 mmHg 53%
    15:00 +28°C° 0 mm 3 mps 674 mmHg 51%
    16:00 +26°C° 0 mm 2 mps 673 mmHg 60%
    17:00 +24°C° 0 mm 2 mps 673 mmHg 69%
    18:00 +22°C° 0 mm 1 mps 673 mmHg 78%
    19:00 +21°C° 0 mm 1 mps 674 mmHg 82%
    20:00 +20°C° 0 mm 1 mps 674 mmHg 86%
    21:00 +20°C° 0 mm 1 mps 675 mmHg 90%
    22:00 +20°C° 0 mm 1 mps 675 mmHg 92%
    23:00 +19°C° 0 mm 1 mps 675 mmHg 93%

    Day after tomorrow, 16 December, Saturday

    Time Temperature Precipitation Wind Pressure Humidity
    00:00 +19°C° 0 mm 1 mps 675 mmHg 94%
    01:00 +19°C° 0 mm 1 mps 674 mmHg 94%
    02:00 +18°C° 0 mm 2 mps 674 mmHg 95%
    03:00 +18°C° 0 mm 2 mps 674 mmHg 95%
    04:00 +18°C° 0 mm 2 mps 674 mmHg 95%
    05:00 +18°C° 0 mm 2 mps 674 mmHg 95%
    06:00 +18°C° 0 mm 2 mps 674 mmHg 94%
    07:00 +19°C° 0 mm 2 mps 675 mmHg 90%
    08:00 +20°C° 0 mm 2 mps 676 mmHg 86%
    09:00 +23°C° 0 mm 2 mps 676 mmHg 81%
    10:00 +23°C° 0.1 mm 2 mps 676 mmHg 79%
    11:00 +23°C° 0.1 mm 2 mps 675 mmHg 77%
    12:00 +24°C° 0.1 mm 3 mps 675 mmHg 74%
    13:00 +25°C° 0 mm 3 mps 675 mmHg 68%
    14:00 +26°C° 0 mm 3 mps 674 mmHg 62%
    15:00 +27°C° 0 mm 3 mps 674 mmHg 56%
    16:00 +25°C° 0 mm 3 mps 674 mmHg 62%
    17:00 +23°C° 0 mm 2 mps 674 mmHg 69%
    18:00 +20°C° 0 mm 2 mps 673 mmHg 76%
    19:00 +19°C° 0 mm 2 mps 674 mmHg 80%
    20:00 +19°C° 0 mm 2 mps 674 mmHg 83%
    21:00 +18°C° 0 mm 2 mps 675 mmHg 87%
    22:00 +17°C° 0 mm 2 mps 674 mmHg 89%
    23:00 +17°C° 0 mm 2 mps 674 mmHg 91%

    17 December, Sunday

    Time Temperature Precipitation Wind Pressure Humidity
    00:00 +16°C° 0 mm 2 mps 674 mmHg 93%
    01:00 +16°C° 0 mm 2 mps 674 mmHg 93%
    02:00 +16°C° 0 mm 2 mps 673 mmHg 93%
    03:00 +16°C° 0 mm 2 mps 673 mmHg 93%
    04:00 +16°C° 0 mm 2 mps 673 mmHg 93%
    05:00 +16°C° 0 mm 2 mps 674 mmHg 93%
    06:00 +16°C° 0 mm 2 mps 674 mmHg 93%
    07:00 +18°C° 0 mm 2 mps 675 mmHg 87%
    08:00 +20°C° 0 mm 2 mps 676 mmHg 81%
    09:00 +21°C° 0 mm 3 mps 676 mmHg 75%
    10:00 +22°C° 0 mm 3 mps 676 mmHg 74%
    11:00 +22°C° 0 mm 3 mps 676 mmHg 73%
    12:00 +24°C° 0 mm 3 mps 675 mmHg 72%
    13:00 +24°C° 0 mm 3 mps 675 mmHg 70%
    14:00 +25°C° 0 mm 3 mps 674 mmHg 68%
    15:00 +25°C° 0 mm 3 mps 673 mmHg 66%
    16:00 +24°C° 0.1 mm 2 mps 673 mmHg 73%
    17:00 +21°C° 0.1 mm 2 mps 673 mmHg 80%
    18:00 +20°C° 0.1 mm 2 mps 674 mmHg 86%
    19:00 +20°C° 0.1 mm 2 mps 674 mmHg 88%
    20:00 +20°C° 0.1 mm 2 mps 674 mmHg 89%
    21:00 +19°C° 0.1 mm 2 mps 675 mmHg 91%
    22:00 +19°C° 0.1 mm 2 mps 675 mmHg 92%
    23:00 +19°C° 0.1 mm 2 mps 674 mmHg 92%

    18 December, Monday

    Time Temperature Precipitation Wind Pressure Humidity
    00:00 +19°C° 0.1 mm 2 mps 674 mmHg 93%
    01:00 +19°C° 0.2 mm 2 mps 674 mmHg 93%
    02:00 +19°C° 0.2 mm 2 mps 674 mmHg 93%
    03:00 +19°C° 0.2 mm 2 mps 673 mmHg 93%
    04:00 +19°C° 0.1 mm 2 mps 674 mmHg 92%
    05:00 +19°C° 0.1 mm 2 mps 674 mmHg 92%
    06:00 +19°C° 0.1 mm 2 mps 674 mmHg 92%
    07:00 +20°C° 0.1 mm 2 mps 675 mmHg 89%
    08:00 +21°C° 0.1 mm 2 mps 675 mmHg 86%
    09:00 +22°C° 0.1 mm 3 mps 676 mmHg 84%
    10:00 +22°C° 0.1 mm 3 mps 675 mmHg 82%
    11:00 +22°C° 0.1 mm 3 mps 675 mmHg 80%
    12:00 +24°C° 0.1 mm 3 mps 674 mmHg 78%
    13:00 +25°C° 0 mm 3 mps 674 mmHg 70%
    14:00 +26°C° 0 mm 3 mps 674 mmHg 62%
    15:00 +27°C° 0 mm 3 mps 673 mmHg 55%
    16:00 +25°C° 0 mm 3 mps 673 mmHg 61%
    17:00 +24°C° 0 mm 2 mps 673 mmHg 68%
    18:00 +21°C° 0 mm 2 mps 674 mmHg 75%
    19:00 +20°C° 0 mm 2 mps 674 mmHg 79%
    20:00 +20°C° 0 mm 2 mps 674 mmHg 84%
    21:00 +19°C° 0 mm 2 mps 675 mmHg 88%
    22:00 +19°C° 0 mm 2 mps 675 mmHg 90%
    23:00 +18°C° 0 mm 2 mps 674 mmHg 93%

    19 December, Tuesday

    Time Temperature Precipitation Wind Pressure Humidity
    00:00 +18°C° 0 mm 2 mps 674 mmHg 95%
    01:00 +18°C° 0 mm 2 mps 674 mmHg 95%
    02:00 +17°C° 0 mm 2 mps 673 mmHg 95%
    03:00 +17°C° 0 mm 2 mps 673 mmHg 95%
    04:00 +17°C° 0 mm 2 mps 673 mmHg 95%
    05:00 +17°C° 0 mm 2 mps 674 mmHg 94%
    06:00 +17°C° 0 mm 2 mps 674 mmHg 93%
    07:00 +19°C° 0 mm 2 mps 675 mmHg 88%
    08:00 +20°C° 0 mm 2 mps 675 mmHg 82%
    09:00 +23°C° 0 mm 2 mps 676 mmHg 77%
    10:00 +23°C° 0.1 mm 2 mps 676 mmHg 75%
    11:00 +24°C° 0.1 mm 3 mps 675 mmHg 74%
    12:00 +25°C° 0.1 mm 3 mps 675 mmHg 72%
    13:00 +25°C° 0 mm 3 mps 674 mmHg 68%
    14:00 +26°C° 0 mm 3 mps 674 mmHg 65%
    15:00 +27°C° 0 mm 3 mps 674 mmHg 61%
    16:00 +25°C° 0.1 mm 2 mps 674 mmHg 70%
    17:00 +23°C° 0.1 mm 2 mps 674 mmHg 78%
    18:00 +21°C° 0.1 mm 2 mps 674 mmHg 86%
    19:00 +20°C° 0.1 mm 2 mps 674 mmHg 88%
    20:00 +20°C° 0.1 mm 2 mps 675 mmHg 90%
    21:00 +19°C° 0.1 mm 2 mps 675 mmHg 92%
    22:00 +19°C° 0.1 mm 2 mps 675 mmHg 93%
    23:00 +19°C° 0.1 mm 2 mps 675 mmHg 93%
    Show more